Home   Weather   Germany   Worms   Past weeks
Flag for Germany

Past Weather in Worms, Rhineland-Palatinate, Germany — Yesterday and Last 2 Weeks

Currently: 37 °F. Overcast. (Weather station: Mannheim City, Germany). See more current weather

Past Weather in Worms — Graph

°F

Worms Temperature Yesterday

Maximum temperature yesterday: 39 °F (at 3:20 pm)
Minimum temperature yesterday: 32 °F (at 12:20 am)
Average temperature yesterday: 36 °F

High & Low Weather Summary for the Past Weeks

 TemperatureHumidityPressure
High52 °F (Jan 13, 12:50 pm)100% (Jan 20, 6:20 am)30.60 "Hg (Jan 20, 6:20 am)
Low27 °F (Jan 19, 2:50 am)52% (Jan 18, 3:50 pm)29.00 "Hg (Jan 16, 4:50 pm)
Average37 °F82%29.99 "Hg
* Reported Jan 13 10:20 am — Jan 28 10:20 am, Worms. Weather by CustomWeather, © 2023

Note: Actual official high and low records may vary slightly from our data, if they occured in-between our weather recording intervals... More about our weather records

Worms Weather History for the Previous 24 Hours

Scroll right to see more
 ConditionsComfort  
Time TempWeatherWind HumidityBarometerVisibility
10:20 am
Sat, Jan 28
37 °FOvercast.8 mph75%30.33 "HgN/A
9:50 am37 °FOvercast.9 mph75%30.33 "HgN/A
9:20 am36 °FOvercast.8 mph87%30.33 "HgN/A
8:20 am36 °FOvercast.8 mph87%30.33 "HgN/A
7:50 am36 °FOvercast.7 mph87%30.30 "HgN/A
7:20 am37 °FMostly cloudy.8 mph75%30.30 "HgN/A
6:50 am37 °FOvercast.7 mph81%30.30 "HgN/A
6:20 am37 °FOvercast.7 mph81%30.27 "HgN/A
5:50 am36 °FOvercast.8 mph87%30.27 "HgN/A
5:20 am36 °FMostly cloudy.7 mph87%30.27 "HgN/A
4:50 am37 °FOvercast.8 mph81%30.27 "HgN/A
4:20 am37 °FPassing clouds.9 mph81%30.27 "HgN/A
3:50 am37 °FPassing clouds.9 mph81%30.27 "HgN/A
3:20 am37 °FOvercast.7 mph81%30.27 "HgN/A
2:50 am37 °FMostly cloudy.6 mph87%30.27 "HgN/A
2:20 am37 °FMostly cloudy.6 mph87%30.27 "HgN/A
1:50 am37 °FOvercast.7 mph87%30.27 "HgN/A
12:20 am37 °FOvercast.6 mph87%30.27 "HgN/A
11:50 pm
Fri, Jan 27
37 °FOvercast.3 mph81%30.27 "HgN/A
11:20 pm37 °FMostly cloudy.6 mph81%30.27 "HgN/A
10:50 pm37 °FOvercast.7 mph81%30.27 "HgN/A
10:20 pm39 °FOvercast.7 mph75%30.27 "HgN/A
9:50 pm39 °FOvercast.8 mph75%30.24 "HgN/A
9:20 pm39 °FOvercast.7 mph75%30.24 "HgN/A
8:50 pm39 °FOvercast.7 mph75%30.24 "HgN/A
8:20 pm39 °FOvercast.6 mph75%30.24 "HgN/A
7:50 pm39 °FOvercast.8 mph75%30.24 "HgN/A
7:20 pm39 °FOvercast.5 mph75%30.24 "HgN/A
6:50 pm39 °FOvercast.6 mph75%30.24 "HgN/A
6:20 pm39 °FOvercast.6 mph75%30.21 "HgN/A
5:50 pm39 °FOvercast.7 mph75%30.21 "HgN/A
5:20 pm39 °FOvercast.7 mph75%30.21 "HgN/A
4:50 pm39 °FOvercast.6 mph70%30.21 "HgN/A
4:20 pm39 °FOvercast.3 mph70%30.21 "HgN/A
3:20 pm39 °FPartly sunny.7 mph65%30.18 "HgN/A
2:50 pm37 °FPartly sunny.9 mph70%30.18 "HgN/A
2:20 pm37 °FOvercast.8 mph75%30.18 "HgN/A
1:50 pm37 °FOvercast.10 mph70%30.18 "HgN/A
1:20 pm36 °FOvercast.7 mph81%30.18 "HgN/A
12:50 pm36 °FOvercast.6 mph81%30.21 "HgN/A
12:20 pm36 °FOvercast.5 mph81%30.21 "HgN/A
Weather by CustomWeather, © 2023

See weather overview